Welcome to the New NWS' Forecast!
Most changes are behind the scenes, but click here for differences you might notice.

Regional Weather Roundup (RWR)

Issued by National Weather Service (NWS)

                            
000
ASUS42 KTBW 151716
RWRFL 
FLORIDA REGIONAL WEATHER ROUNDUP
NATIONAL WEATHER SERVICE TAMPA BAY RUSKIN FL
1200 PM EST THU NOV 15 2018

NOTE: "FAIR" INDICATES FEW OR NO CLOUDS BELOW 12,000 FEET WITH NO
SIGNIFICANT WEATHER AND/OR OBSTRUCTIONS TO VISIBILITY.

FLZ001>010-012>015-112-114-115-151800-
PANHANDLE FLORIDA
  
CITY           SKY/WX    TMP DP  RH WIND       PRES   REMARKS
PENSACOLA      FAIR      43  32  65 N16       30.22F WCI  35          
PENSACOLA NAS  MOSUNNY   43  34  70 NW10      30.23S WCI  37          
MILTON NAS     FAIR      40  33  76 N9G21     30.22  WCI  34          
CRESTVIEW      CLOUDY    38  32  79 N13       30.22F WCI  30          
DUKE FIELD     PTSUNNY   38  32  78 NW15      30.20F WCI  30          
VALPARAISO     PTSUNNY   41  33  74 N15G21    30.19F WCI  33          
MARY ESTHER    PTSUNNY   42  33  70 NW16G22   30.19F WCI  34          
PANAMA CITY    CLOUDY    41  36  82 NW12      30.18S WCI  34          
TYNDALL AFB    PTSUNNY   43  37  81 NW12      30.20S WCI  37          
APALACHICOLA   CLOUDY    46  41  82 NW15G21   30.15S WCI  40          

STATION/POSITION SKY/WX   TEMP    WIND        PRES    WAVE   SWELL
                          AIR SEA DIR/SP/G            HT/PER HT/PER
                          (F)     (DEG/KT/KT) (MB)    (FT/S) (FT/S)
30.1N   87.6W              43                 1024.1
29.2N   88.2W                 76  330/ 21/ 27 1024.7
PANAMA CITY BEAC           40 69  310/ 12/ 15 1022.7
TOWER C                    53     310/ 22/ 25 1020.3F

$$
FLZ011-016>038-118-127-128-134-139-239-151800-
NORTH FLORIDA
  
CITY           SKY/WX    TMP DP  RH WIND       PRES   REMARKS
MARIANNA       CLOUDY    54  39  57 W14       30.17R                  
TALLAHASSEE    CLOUDY    48  46  93 W9        30.12F WCI  44          
PERRY          CLOUDY    55  53  94 W8        30.10R                  
LIVE OAK       CLOUDY    55  54  94 W7        30.07F                  
CROSS CITY     CLOUDY    59  57  92 NW8       30.07F                  
LAKE CITY      CLOUDY    54  52  94 NW7       30.07S                  
GAINESVILLE    CLOUDY    59  54  83 NW9       30.08F                  
WILLISTON        N/A    N/A N/A N/A MISG        N/A                   
JACKSONVILLE   CLOUDY    55  49  80 W13       30.04F                  
JAX CECIL      CLOUDY    57  52  82 W6G14     30.05F                  
FERNANDINA BEA PTSUNNY   55  48  80 NW12      30.04S                  
ST AUGUSTINE   CLOUDY    61  53  75 W16G22    30.04F                  

STATION/POSITION SKY/WX   TEMP    WIND        PRES    WAVE   SWELL
                          AIR SEA DIR/SP/G            HT/PER HT/PER
                          (F)     (DEG/KT/KT) (MB)    (FT/S) (FT/S)
SHELL POINT      NOT AVBL
KEATON BEACH               55     310/  8/ 10 1019.2S
CEDAR KEY                  62     320/  9/ 11 1018.5F
FERNANDINA                    70  280/ 12/ 15 1018.0F
30.7N   81.3W                 71                N/A     5/11   2/11
MAYPORT                    54 72  280/ 11/ 14 1017.3F
31.4N   80.9W              51 70  140/  6/ 10 1015.9S   5/10   5/10
ST AUGUSTINE               60 72  310/ 10/ 13 1016.6F

$$
FLZ040-043>046-052-053-057-058-063-144-151800-
INTERIOR CENTRAL FLORIDA
  
CITY           SKY/WX    TMP DP  RH WIND       PRES   REMARKS
OCALA          CLOUDY    63  57  81 W9        30.06F                  
LEESBURG       PTSUNNY   67  59  75 W8G21     30.03F                  
SANFORD        PTSUNNY   69  60  73 NW15      30.01S                  
ORLANDO EXEC   PTSUNNY   69  60  73 NW18      30.01F                  
ORLANDO INTL   PTSUNNY   71  60  68 NW16      30.01S                  
KISSIMMEE      FAIR      73  62  68 NW14      30.02S                  
WINTER HAVEN   FAIR      76  62  62 NW10      30.02F                  
LAKELAND       PTSUNNY   73  63  68 NW9       30.03F                  
BARTOW         MOSUNNY   73  61  64 W10       30.01F                  
SEBRING        FAIR      75  62  64 NW3       30.01F                  
OKEECHOBEE     PTSUNNY   70  66  88 N7        29.99F                  

$$
FLZ041-047-054-059-064-141-147-151800-
EAST CENTRAL FLORIDA
  
CITY           SKY/WX    TMP DP  RH WIND       PRES   REMARKS
ORMOND BEACH   CLOUDY    63  59  88 NW14G23   30.02S                  
DAYTONA BEACH  CLOUDY    66  61  84 W13       30.01S                  
DELAND         CLOUDY    64  59  82 NW10G21   30.02F                  
NEW SMYRNA BEA MOSUNNY   73  63  68 NW12      30.01S                  
JFK SPACE CTR  FAIR      71  63  75 NW5       29.97F                  
TITUSVILLE     MOSUNNY   75  63  64 NW12      29.99F                  
CAPE CANAVERAL LGT RAIN  72  65  78 W7        29.97F                  
PATRICK AFB    LGT RAIN  73  67  82 W8        29.98F                  
MELBOURNE      LGT RAIN  72  64  76 W7        29.99F                  
VERO BEACH     FAIR      73  68  84 W8        29.99F                  
FT PIERCE      FAIR      74  67  78 W6        29.99S                  
STUART         PTSUNNY   75  68  78 NW12      30.00F                  

STATION/POSITION SKY/WX   TEMP    WIND        PRES    WAVE   SWELL
                          AIR SEA DIR/SP/G            HT/PER HT/PER
                          (F)     (DEG/KT/KT) (MB)    (FT/S) (FT/S)
28.5N   80.2W              72     310/  4/  8 1015.1F   5/ 9   5/ 9
28.9N   78.5W              81 82  190/ 17/ 23 1015.2F
TRIDENT PIER               71 80  270/  5/  6 1016.5F
28.4N   80.5W                 79                N/A     3/10   2/11
27.5N   80.2W                 80                N/A     3/ 9   2/11

$$
FLZ050-056-061-142-242-148-248-149-249-151-251-155-255-
160-260-151800-
WEST CENTRAL FLORIDA
  
CITY           SKY/WX    TMP DP  RH WIND       PRES   REMARKS
CRYSTAL RIVER  DRIZZLE   61  59  94 NW6       30.07S                  
BROOKSVILLE    LGT RAIN  64  62  93 NW14      30.06F FOG              
CLEARWATER AIR CLOUDY    64  61  88 NW15G23   30.06F                  
ST PETE CLEARW LGT RAIN  65  65 100 NW18      30.06S FOG              
TAMPA INTL     DRIZZLE   67  62  84 NW17G23   30.06S                  
TAMPA EXEC     CLOUDY    68  63  83 NW12G17   30.05S                  
PLANT CITY     CLOUDY    72  63  73 W15G22    30.06R                  
MACDILL AFB    CLOUDY    66  63  88 N17G23    30.05S                  
PETER O KNIGHT CLOUDY    66  63  88 NW13G23   30.06R                  
ST PETERSBURG  CLOUDY    66  64  93 NW13      30.03F                  
SARASOTA       CLOUDY    70  65  84 NW15G26   30.03R                  
VENICE         CLOUDY    75  66  73 NW14      30.04S                  

STATION/POSITION SKY/WX   TEMP    WIND        PRES    WAVE   SWELL
                          AIR SEA DIR/SP/G            HT/PER HT/PER
                          (F)     (DEG/KT/KT) (MB)    (FT/S) (FT/S)
CLEARWATER BEACH           66 77  310/ 23/ 27 1018.4
MIDDLE TAMPA BAY           67     350/ 18/ 23 1017.8R
VENICE                     71 79  320/ 22/ 24 1017.1F

$$
FLZ066-069-070-075>078-162-262-165-265-151800-
SOUTHWEST FLORIDA AND KEYS
  
CITY           SKY/WX    TMP DP  RH WIND       PRES   REMARKS
PUNTA GORDA    FAIR      75  62  64 N9        30.04F                  
FT MYERS       FAIR      76  64  66 N13       30.01S                  
SOUTHWEST INTL PTSUNNY   74  63  68 NW9       30.01F                  
NAPLES         FAIR      77  64  64 N7        30.00F                  
MARCO ISLAND   FAIR      77  67  71 N10       30.01F                  
IMMOKALEE      MOSUNNY   73  66  78 N6        30.00F                  
MARATHON       PTSUNNY   79  73  82 NW13      29.99S                  
KEY WEST NAS   FAIR      81  72  74 N18       30.00F                  
KEY WEST INTL  FAIR      83  73  72 N13       30.01F                  

STATION/POSITION SKY/WX   TEMP    WIND        PRES    WAVE   SWELL
                          AIR SEA DIR/SP/G            HT/PER HT/PER
                          (F)     (DEG/KT/KT) (MB)    (FT/S) (FT/S)
NAPLES                     74 80              1016.2F
26.0N   85.6W              69 81  320/ 21/ 31 1020.2
DRY TORTUGAS               77     350/ 17/ 20 1017.0F
SAND KEY                   77                 1016.2F
SOMBRERO KEY               79     310/ 16/ 19 1015.1F
LONG KEY                   79 82  330/  9/ 10 1015.0F
MOLASSES REEF              80 82  320/  6/  7 1015.1F

$$
FLZ067-068-071>074-168-172>174-151800-
SOUTHEAST FLORIDA 
  
CITY           SKY/WX    TMP DP  RH WIND       PRES   REMARKS
W PALM BEACH   PTSUNNY   78  73  84 W8        29.99S                  
BOCA RATON     MOSUNNY   81  72  74 NW12      29.97F                  
FT LAUDER-EXEC FAIR      81  74  79 NW8       29.97F                  
FT LAUDERDALE  LGT RAIN  77  76  96 NW9       29.97F                  
POMPANO BEACH  FAIR      79  73  82 N9        29.97F                  
PEMBROKE PINES PTSUNNY   82  74  76 NW8       29.99F                  
OPA LOCKA      FAIR      81  74  79 NW10      29.98F                  
MIAMI          PTSUNNY   79  74  84 NW12      29.97F                  
WEST KENDALL   FAIR      84  73  69 W8        29.97F                  
HOMESTEAD      CLOUDY    83  74  74 W7        29.96F                  

STATION/POSITION SKY/WX   TEMP    WIND        PRES    WAVE   SWELL
                          AIR SEA DIR/SP/G            HT/PER HT/PER
                          (F)     (DEG/KT/KT) (MB)    (FT/S) (FT/S)
PORT EVERGLADES            80     310/ 10/ 15 1015.0F
VIRGINIA KEY               83 83  200/  5/  6 1014.7F
LAKE WORTH                 75 81  350/  5/  7 1016.4F
FOWEY ROCKS                83 81  200/  6/  7 1015.4F
SETTLEMENT POINT           81     190/ 12/ 14 1015.2F

$$